User: anonymous   Login
Location: Unspecified
(0.0000°N, 0.0000°E)
Time: 19:50:30
(UTC+00:00)
Language:

Isis 2 - Orbit

View from above orbital plane
View from above orbital plane
View from above satellite
View from above satellite

Ground track
Ground track

The orbit data is extracted from the following two-line orbital elements,

1  5104U 71024A   17268.59333049 -.00000003 +00000-0 -71085-4 0  9994
2  5104 088.1580 105.0002 0045260 107.1113 313.0898 12.67836034150953
Epoch (UTC): 25 September 2017 14:14:23
Eccentricity: 0.0045260
inclination: 88.1580°
perigee height: 1355 km
apogee height: 1426 km
right ascension of ascending node: 105.0002°
argument of perigee: 107.1113°
revolutions per day: 12.67836034
mean anomaly at epoch: 313.0898°
orbit number at epoch: 15095

The dashed part of the orbit path shows where the satellite is in the earth's shadow,  

DLR